This is the latest recevied weather packets stored in our database for station/object OK1FET-14. If no packets are shown the sender has not sent any weather packets the latest 1 day(s).
| Time | Temp. | Humidity | Pressure | Rain* | Wind** | Luminosity | Snow |
|---|---|---|---|---|---|---|---|
| 1778015718 | 10.56° C | 100% | 1007.8 hPa | - | 3.58 m/s, 255° | - | - |
| 1778015718 | 10.56° C | 100% | 1007.8 hPa | - | 3.58 m/s, 255° | - | - |
| 1778015718 | 10.56° C | 100% | 1007.8 hPa | - | 3.58 m/s, 255° | - | - |
| 1778015718 | 10.56° C | 100% | 1007.8 hPa | - | 3.58 m/s, 255° | - | - |
| 1778015438 | 10.56° C | 100% | 1007.7 hPa | - | 4.47 m/s, 252° | - | - |
| 1778015438 | 10.56° C | 100% | 1007.7 hPa | - | 4.47 m/s, 252° | - | - |
| 1778015437 | 10.56° C | 100% | 1007.7 hPa | - | 4.47 m/s, 252° | - | - |
| 1778015437 | 10.56° C | 100% | 1007.7 hPa | - | 4.47 m/s, 252° | - | - |
| 1778015241 | 10.56° C | 100% | 1007.8 hPa | - | 5.81 m/s, 232° | - | - |
| 1778015158 | 10.56° C | 100% | 1007.8 hPa | - | 5.81 m/s, 232° | - | - |
| 1778015158 | 10.56° C | 100% | 1007.8 hPa | - | 5.81 m/s, 232° | - | - |
| 1778015157 | 10.56° C | 100% | 1007.8 hPa | - | 5.81 m/s, 232° | - | - |
| 1778015157 | 10.56° C | 100% | 1007.8 hPa | - | 5.81 m/s, 232° | - | - |
| 1778014877 | 10.56° C | 100% | 1008 hPa | - | 6.26 m/s, 246° | - | - |
| 1778014877 | 10.56° C | 100% | 1008 hPa | - | 6.26 m/s, 246° | - | - |
| 1778014877 | 10.56° C | 100% | 1008 hPa | - | 6.26 m/s, 246° | - | - |
| 1778014597 | 10.56° C | 100% | 1007.9 hPa | - | 6.26 m/s, 236° | - | - |
| 1778014597 | 10.56° C | 100% | 1007.9 hPa | - | 6.26 m/s, 236° | - | - |
| 1778014597 | 10.56° C | 100% | 1007.9 hPa | - | 6.26 m/s, 236° | - | - |
| 1778014597 | 10.56° C | 100% | 1007.9 hPa | - | 6.26 m/s, 236° | - | - |
| 1778014317 | 10.56° C | 100% | 1008 hPa | - | 5.36 m/s, 268° | - | - |
| 1778014317 | 10.56° C | 100% | 1008 hPa | - | 5.36 m/s, 268° | - | - |
| 1778014317 | 10.56° C | 100% | 1008 hPa | - | 5.36 m/s, 268° | - | - |
| 1778014317 | 10.56° C | 100% | 1008 hPa | - | 5.36 m/s, 268° | - | - |
| 1778014037 | 10.56° C | 100% | 1008 hPa | - | 5.36 m/s, 246° | - | - |
* Rain since midnight (hover to see other rain measurements)
** Current wind speed in m/s (hover to see current wind gust speed)